Location: São Paulo
(23.5507°S, 46.6334°W)
Time: 08:22:59
(UTC-03:00)

Vanguard 2 Rocket - Pass Details

Date: 24 February 2026
Orbit: 553 x 3286 km, 32.9° (Epoch: 7 March)

Event Time Altitude Azimuth Distance (km) Brightness Sun altitude
Exits shadow 03:35:52 47° 217° (SW) 1,555 7.9 -31.8°
Maximum altitude 03:38:06 65° 157° (SSE) 1,464 7.9 -31.4°
Drops below altitude 10° 03:49:43 10° 77° (ENE) 4,645 11.1 -29.0°
Sets 03:54:28 0° 74° (ENE) 6,088 11.8 -28.0°
